Time,TemperatureF,DewpointF,PressureIn,WindDirection,WindDirectionDegrees,WindSpeedMPH,WindSpeedGustMPH,Humidity,HourlyPrecipIn,Conditions,Clouds,dailyrainin,SolarRadiationWatts/m^2,SoftwareType,DateUTC
2013-06-30 00:00:00,64.0,63.0,-100.00,SE,135,3.0,-999.0,97,-99.99,,,-99.99,0.000000,,2013-06-30 04:00:00,
2013-06-30 00:43:00,64.0,63.0,-100.00,SE,135,3.0,-999.0,97,-99.99,,,-99.99,0.000000,,2013-06-30 04:43:00,
2013-06-30 00:53:00,64.0,63.0,-100.00,SE,135,3.0,-999.0,97,-99.99,,,-99.99,0.000000,,2013-06-30 04:53:00,
2013-06-30 01:00:00,64.0,63.0,-100.00,ESE,112,3.0,-999.0,95,-99.99,,,-99.99,0.000000,,2013-06-30 05:00:00,
2013-06-30 01:34:00,64.0,63.0,-100.00,ESE,112,3.0,-999.0,95,-99.99,,,-99.99,0.000000,,2013-06-30 05:34:00,
2013-06-30 01:43:00,64.0,63.0,-100.00,ESE,112,3.0,-999.0,95,-99.99,,,-99.99,0.000000,,2013-06-30 05:43:00,
2013-06-30 01:53:00,64.0,63.0,-100.00,ESE,112,3.0,-999.0,95,-99.99,,,-99.99,0.000000,,2013-06-30 05:53:00,
2013-06-30 02:00:00,63.0,62.0,-100.00,South,180,3.0,-999.0,95,-99.99,,,-99.99,0.000000,,2013-06-30 06:00:00,
2013-06-30 02:43:00,63.0,62.0,-100.00,South,180,3.0,-999.0,95,-99.99,,,-99.99,0.000000,,2013-06-30 06:43:00,
2013-06-30 02:53:00,63.0,62.0,-100.00,South,180,3.0,-999.0,95,-99.99,,,-99.99,0.000000,,2013-06-30 06:53:00,
2013-06-30 03:00:00,63.0,62.0,-100.00,South,180,3.0,-999.0,97,-99.99,,,-99.99,0.000000,,2013-06-30 07:00:00,
2013-06-30 03:44:00,63.0,62.0,-100.00,South,180,3.0,-999.0,97,-99.99,,,-99.99,0.000000,,2013-06-30 07:44:00,
2013-06-30 03:53:00,63.0,62.0,-100.00,South,180,3.0,-999.0,97,-99.99,,,-99.99,0.000000,,2013-06-30 07:53:00,
2013-06-30 05:00:00,63.0,61.0,-100.00,NE,45,3.0,-999.0,94,-99.99,,,-99.99,0.000000,,2013-06-30 09:00:00,
2013-06-30 05:43:00,63.0,61.0,-100.00,NE,45,3.0,-999.0,94,-99.99,,,-99.99,0.000000,,2013-06-30 09:43:00,
2013-06-30 05:53:00,63.0,61.0,-100.00,NE,45,3.0,-999.0,94,-99.99,,,-99.99,0.000000,,2013-06-30 09:53:00,
2013-06-30 07:00:00,61.0,60.0,-100.00,NE,45,1.0,-999.0,96,-99.99,,,-99.99,18.559999,,2013-06-30 11:00:00,
2013-06-30 07:43:00,61.0,60.0,-100.00,NE,45,1.0,-999.0,96,-99.99,,,-99.99,18.559999,,2013-06-30 11:43:00,
2013-06-30 07:53:00,61.0,60.0,-100.00,NE,45,1.0,-999.0,96,-99.99,,,-99.99,18.559999,,2013-06-30 11:53:00,
2013-06-30 08:00:00,63.0,60.0,-100.00,East,90,2.0,-999.0,89,-99.99,,,-99.99,97.440002,,2013-06-30 12:00:00,
2013-06-30 08:43:00,63.0,60.0,-100.00,East,90,2.0,-999.0,89,-99.99,,,-99.99,97.440002,,2013-06-30 12:43:00,
2013-06-30 08:52:00,63.0,60.0,-100.00,East,90,2.0,-999.0,89,-99.99,,,-99.99,97.440002,,2013-06-30 12:52:00,
2013-06-30 09:00:00,65.0,61.0,-100.00,East,90,3.0,-999.0,85,-99.99,,,-99.99,141.520004,,2013-06-30 13:00:00,
2013-06-30 09:44:00,65.0,61.0,-100.00,East,90,3.0,-999.0,85,-99.99,,,-99.99,141.520004,,2013-06-30 13:44:00,
2013-06-30 09:53:00,65.0,61.0,-100.00,East,90,3.0,-999.0,85,-99.99,,,-99.99,141.520004,,2013-06-30 13:53:00,
2013-06-30 11:00:00,70.0,62.0,-100.00,ESE,112,3.0,-999.0,75,-99.99,,,-99.99,402.519989,,2013-06-30 15:00:00,
2013-06-30 11:44:00,70.0,62.0,-100.00,ESE,112,3.0,-999.0,75,-99.99,,,-99.99,402.519989,,2013-06-30 15:44:00,
2013-06-30 11:53:00,70.0,62.0,-100.00,ESE,112,3.0,-999.0,75,-99.99,,,-99.99,402.519989,,2013-06-30 15:53:00,
2013-06-30 12:00:00,75.0,63.0,-100.00,SE,135,3.0,-999.0,66,-99.99,,,-99.99,522.000000,,2013-06-30 16:00:00,
2013-06-30 12:44:00,75.0,63.0,-100.00,SE,135,3.0,-999.0,66,-99.99,,,-99.99,522.000000,,2013-06-30 16:44:00,
2013-06-30 12:53:00,75.0,63.0,-100.00,SE,135,3.0,-999.0,66,-99.99,,,-99.99,522.000000,,2013-06-30 16:53:00,
2013-06-30 13:00:00,77.0,63.0,-100.00,ESE,112,3.0,-999.0,61,-99.99,,,-99.99,490.679993,,2013-06-30 17:00:00,
2013-06-30 13:43:00,77.0,63.0,-100.00,ESE,112,3.0,-999.0,61,-99.99,,,-99.99,490.679993,,2013-06-30 17:43:00,
2013-06-30 13:53:00,77.0,63.0,-100.00,ESE,112,3.0,-999.0,61,-99.99,,,-99.99,490.679993,,2013-06-30 17:53:00,
2013-06-30 14:00:00,78.0,62.0,-100.00,SE,135,4.0,-999.0,58,-99.99,,,-99.99,539.400024,,2013-06-30 18:00:00,
2013-06-30 14:43:00,78.0,62.0,-100.00,SE,135,4.0,-999.0,58,-99.99,,,-99.99,539.400024,,2013-06-30 18:43:00,
2013-06-30 14:53:00,78.0,62.0,-100.00,SE,135,4.0,-999.0,58,-99.99,,,-99.99,539.400024,,2013-06-30 18:53:00,
2013-06-30 15:00:00,79.0,65.0,-100.00,West,270,8.0,-999.0,61,-99.99,,,-99.99,963.960022,,2013-06-30 19:00:00,
2013-06-30 15:43:00,79.0,65.0,-100.00,West,270,8.0,-999.0,61,-99.99,,,-99.99,963.960022,,2013-06-30 19:43:00,
2013-06-30 15:53:00,79.0,65.0,-100.00,West,270,8.0,-999.0,61,-99.99,,,-99.99,963.960022,,2013-06-30 19:53:00,
2013-06-30 17:00:00,74.0,61.0,-100.00,South,180,6.0,-999.0,63,-99.99,,,-99.99,310.880005,,2013-06-30 21:00:00,
2013-06-30 17:43:00,74.0,61.0,-100.00,South,180,6.0,-999.0,63,-99.99,,,-99.99,310.880005,,2013-06-30 21:43:00,
2013-06-30 17:53:00,74.0,61.0,-100.00,South,180,6.0,-999.0,63,-99.99,,,-99.99,310.880005,,2013-06-30 21:53:00,
2013-06-30 18:00:00,73.0,62.0,-100.00,South,180,7.0,-999.0,67,-99.99,,,-99.99,396.720001,,2013-06-30 22:00:00,
2013-06-30 18:43:00,73.0,62.0,-100.00,South,180,7.0,-999.0,67,-99.99,,,-99.99,396.720001,,2013-06-30 22:43:00,
2013-06-30 18:53:00,73.0,62.0,-100.00,South,180,7.0,-999.0,67,-99.99,,,-99.99,396.720001,,2013-06-30 22:53:00,
2013-06-30 19:00:00,68.0,61.0,-100.00,SSW,202,2.0,-999.0,77,0.01,,,-99.99,128.759995,,2013-06-30 23:00:00,
2013-06-30 19:44:00,68.0,61.0,-100.00,SSW,202,2.0,-999.0,77,0.01,,,-99.99,128.759995,,2013-06-30 23:44:00,
2013-06-30 19:53:00,68.0,61.0,-100.00,SSW,202,2.0,-999.0,77,0.01,,,-99.99,128.759995,,2013-06-30 23:53:00,
2013-06-30 20:00:00,70.0,63.0,-100.00,South,180,1.0,-999.0,76,-99.99,,,-99.99,78.879997,,2013-07-01 00:00:00,
2013-06-30 20:33:00,70.0,63.0,-100.00,South,180,1.0,-999.0,76,-99.99,,,-99.99,78.879997,,2013-07-01 00:33:00,
2013-06-30 20:42:00,70.0,63.0,-100.00,South,180,1.0,-999.0,76,-99.99,,,-99.99,78.879997,,2013-07-01 00:42:00,
2013-06-30 20:52:00,70.0,63.0,-100.00,South,180,1.0,-999.0,76,-99.99,,,-99.99,78.879997,,2013-07-01 00:52:00,
2013-06-30 21:00:00,70.0,61.0,-100.00,ENE,67,1.0,-999.0,71,-99.99,,,-99.99,75.400002,,2013-07-01 01:00:00,
2013-06-30 21:43:00,70.0,61.0,-100.00,ENE,67,1.0,-999.0,71,-99.99,,,-99.99,75.400002,,2013-07-01 01:43:00,
2013-06-30 21:52:00,70.0,61.0,-100.00,ENE,67,1.0,-999.0,71,-99.99,,,-99.99,75.400002,,2013-07-01 01:52:00,
2013-06-30 22:00:00,67.0,60.0,-100.00,SSW,202,1.0,-999.0,78,-99.99,,,-99.99,4.640000,,2013-07-01 02:00:00,
2013-06-30 22:44:00,67.0,60.0,-100.00,SSW,202,1.0,-999.0,78,-99.99,,,-99.99,4.640000,,2013-07-01 02:44:00,
2013-06-30 22:54:00,67.0,60.0,-100.00,SSW,202,1.0,-999.0,78,-99.99,,,-99.99,4.640000,,2013-07-01 02:54:00,